Time,TemperatureF,DewpointF,PressureIn,WindDirection,WindDirectionDegrees,WindSpeedMPH,WindSpeedGustMPH,Humidity,HourlyPrecipIn,Conditions,Clouds,dailyrainin,SoftwareType,DateUTC
2013-02-15 00:00:00,27.8,20.9,29.87,North,10,6.0,6.0,75,0.00,,,0.12,Wunderground v.1.15,2013-02-15 05:00:00,
2013-02-15 00:05:00,27.8,20.6,29.87,NNE,13,6.0,6.0,74,0.00,,,0.00,Wunderground v.1.15,2013-02-15 05:05:00,
2013-02-15 00:10:00,27.6,20.4,29.87,North,353,5.0,5.0,74,0.00,,,0.00,Wunderground v.1.15,2013-02-15 05:10:00,
2013-02-15 00:15:00,27.5,20.3,29.87,NNW,335,4.0,5.0,74,0.00,,,0.00,Wunderground v.1.15,2013-02-15 05:15:00,
2013-02-15 00:25:00,27.5,20.6,29.87,NNE,18,1.0,3.0,75,0.00,,,0.00,Wunderground v.1.15,2013-02-15 05:25:00,
2013-02-15 00:30:00,27.5,20.6,29.88,NNW,346,2.0,2.0,75,0.00,,,0.00,Wunderground v.1.15,2013-02-15 05:30:00,
2013-02-15 00:35:00,27.5,20.6,29.88,NNW,339,3.0,3.0,75,0.00,,,0.00,Wunderground v.1.15,2013-02-15 05:35:00,
2013-02-15 00:45:00,27.3,20.7,29.89,NNW,344,3.0,6.0,76,0.00,,,0.00,Wunderground v.1.15,2013-02-15 05:45:00,
2013-02-15 00:50:00,27.2,20.3,29.89,NW,319,4.0,4.0,75,0.00,,,0.00,Wunderground v.1.15,2013-02-15 05:50:00,
2013-02-15 00:55:00,27.2,20.3,29.89,North,0,4.0,5.0,75,0.00,,,0.00,Wunderground v.1.15,2013-02-15 05:55:00,
2013-02-15 01:00:00,27.0,20.1,29.89,NNW,336,3.0,3.0,75,0.00,,,0.00,Wunderground v.1.15,2013-02-15 06:00:00,
2013-02-15 01:05:00,27.0,20.1,29.89,North,353,3.0,5.0,75,0.00,,,0.00,Wunderground v.1.15,2013-02-15 06:05:00,
2013-02-15 01:15:00,26.9,20.0,29.89,North,0,2.0,3.0,75,0.00,,,0.00,Wunderground v.1.15,2013-02-15 06:15:00,
2013-02-15 01:20:00,26.7,19.8,29.89,NNE,31,2.0,3.0,75,0.00,,,0.00,Wunderground v.1.15,2013-02-15 06:20:00,
2013-02-15 01:25:00,26.6,19.7,29.89,NNE,17,2.0,5.0,75,0.00,,,0.00,Wunderground v.1.15,2013-02-15 06:25:00,
2013-02-15 01:30:00,26.3,19.1,29.89,NNE,18,2.0,2.0,74,0.00,,,0.00,Wunderground v.1.15,2013-02-15 06:30:00,
2013-02-15 01:35:00,26.0,19.2,29.89,North,1,2.0,2.0,75,0.00,,,0.00,Wunderground v.1.15,2013-02-15 06:35:00,
2013-02-15 01:45:00,25.8,19.0,29.90,NNE,17,2.0,3.0,75,0.00,,,0.00,Wunderground v.1.15,2013-02-15 06:45:00,
2013-02-15 01:50:00,25.7,18.9,29.90,NNE,13,2.0,2.0,75,0.00,,,0.00,Wunderground v.1.15,2013-02-15 06:50:00,
2013-02-15 01:55:00,25.7,18.9,29.90,North,0,1.0,2.0,75,0.00,,,0.00,Wunderground v.1.15,2013-02-15 06:55:00,
2013-02-15 02:00:00,25.6,18.8,29.90,North,0,1.0,1.0,75,0.00,,,0.00,Wunderground v.1.15,2013-02-15 07:00:00,
2013-02-15 02:05:00,25.6,18.8,29.90,NNE,17,1.0,2.0,75,0.00,,,0.00,Wunderground v.1.15,2013-02-15 07:05:00,
2013-02-15 02:15:00,25.6,18.8,29.90,North,359,2.0,2.0,75,0.00,,,0.00,Wunderground v.1.15,2013-02-15 07:15:00,
2013-02-15 02:25:00,25.6,18.8,29.90,NNW,347,1.0,2.0,75,0.00,,,0.00,Wunderground v.1.15,2013-02-15 07:25:00,
2013-02-15 02:30:00,25.6,18.8,29.91,NNW,344,1.0,2.0,75,0.00,,,0.00,Wunderground v.1.15,2013-02-15 07:30:00,
2013-02-15 02:35:00,25.6,18.8,29.91,NNW,339,1.0,2.0,75,0.00,,,0.00,Wunderground v.1.15,2013-02-15 07:35:00,
2013-02-15 02:45:00,25.6,18.8,29.91,North,357,1.0,2.0,75,0.00,,,0.00,Wunderground v.1.15,2013-02-15 07:45:00,
2013-02-15 02:50:00,25.6,18.8,29.91,North,350,1.0,2.0,75,0.00,,,0.00,Wunderground v.1.15,2013-02-15 07:50:00,
2013-02-15 02:55:00,25.6,19.1,29.91,North,350,1.0,2.0,76,0.00,,,0.00,Wunderground v.1.15,2013-02-15 07:55:00,
2013-02-15 03:05:00,25.6,19.1,29.91,NNW,332,1.0,1.0,76,0.00,,,0.00,Wunderground v.1.15,2013-02-15 08:05:00,
2013-02-15 03:15:00,25.6,19.4,29.91,NNE,18,2.0,2.0,77,0.00,,,0.00,Wunderground v.1.15,2013-02-15 08:15:00,
2013-02-15 03:25:00,25.6,19.4,29.91,NNE,23,1.0,1.0,77,0.00,,,0.00,Wunderground v.1.15,2013-02-15 08:25:00,
2013-02-15 03:30:00,25.4,19.2,29.91,North,11,1.0,4.0,77,0.00,,,0.00,Wunderground v.1.15,2013-02-15 08:30:00,
2013-02-15 03:35:00,25.4,19.2,29.91,NNE,17,1.0,4.0,77,0.00,,,0.00,Wunderground v.1.15,2013-02-15 08:35:00,
2013-02-15 03:45:00,25.1,19.2,29.92,North,356,1.0,2.0,78,0.00,,,0.00,Wunderground v.1.15,2013-02-15 08:45:00,
2013-02-15 03:50:00,25.1,18.9,29.92,North,352,2.0,2.0,77,0.00,,,0.00,Wunderground v.1.15,2013-02-15 08:50:00,
2013-02-15 03:55:00,25.0,18.8,29.92,North,0,2.0,6.0,77,0.00,,,0.00,Wunderground v.1.15,2013-02-15 08:55:00,
2013-02-15 04:00:00,25.0,18.8,29.92,NNW,330,3.0,3.0,77,0.00,,,0.00,Wunderground v.1.15,2013-02-15 09:00:00,
2013-02-15 04:05:00,25.0,18.5,29.92,NNE,21,3.0,3.0,76,0.00,,,0.00,Wunderground v.1.15,2013-02-15 09:05:00,
2013-02-15 04:15:00,24.8,18.0,29.92,North,0,2.0,3.0,75,0.00,,,0.00,Wunderground v.1.15,2013-02-15 09:15:00,
2013-02-15 04:25:00,24.8,18.3,29.92,NNW,339,2.0,3.0,76,0.00,,,0.00,Wunderground v.1.15,2013-02-15 09:25:00,
2013-02-15 04:30:00,24.8,18.0,29.93,NNW,346,3.0,3.0,75,0.00,,,0.00,Wunderground v.1.15,2013-02-15 09:30:00,
2013-02-15 04:35:00,24.8,18.0,29.93,NNW,332,3.0,4.0,75,0.00,,,0.00,Wunderground v.1.15,2013-02-15 09:35:00,
2013-02-15 04:40:00,24.8,17.7,29.93,North,359,4.0,8.0,74,0.00,,,0.00,Wunderground v.1.15,2013-02-15 09:40:00,
2013-02-15 04:50:00,24.8,17.4,29.94,NNE,13,4.0,4.0,73,0.00,,,0.00,Wunderground v.1.15,2013-02-15 09:50:00,
2013-02-15 04:55:00,24.7,17.0,29.94,WNW,296,4.0,7.0,72,0.00,,,0.00,Wunderground v.1.15,2013-02-15 09:55:00,
2013-02-15 05:00:00,24.5,16.1,29.94,NW,316,6.0,9.0,70,0.00,,,0.00,Wunderground v.1.15,2013-02-15 10:00:00,
2013-02-15 05:06:00,24.5,15.8,29.94,North,0,6.0,9.0,69,0.00,,,0.00,Wunderground v.1.15,2013-02-15 10:06:00,
2013-02-15 05:15:00,24.2,14.8,29.96,North,0,6.0,8.0,67,0.00,,,0.00,Wunderground v.1.15,2013-02-15 10:15:00,
2013-02-15 05:25:00,24.1,14.4,29.96,North,0,6.0,7.0,66,0.00,,,0.00,Wunderground v.1.15,2013-02-15 10:25:00,
2013-02-15 05:30:00,23.9,14.2,29.96,North,353,6.0,6.0,66,0.00,,,0.00,Wunderground v.1.15,2013-02-15 10:30:00,
2013-02-15 05:35:00,23.9,14.2,29.96,North,0,6.0,9.0,66,0.00,,,0.00,Wunderground v.1.15,2013-02-15 10:35:00,
2013-02-15 05:40:00,23.8,14.1,29.96,NNW,340,6.0,7.0,66,0.00,,,0.00,Wunderground v.1.15,2013-02-15 10:40:00,
2013-02-15 05:50:00,23.8,14.4,29.97,NNW,343,4.0,4.0,67,0.00,,,0.00,Wunderground v.1.15,2013-02-15 10:50:00,
2013-02-15 05:55:00,23.6,14.2,29.97,North,359,3.0,4.0,67,0.00,,,0.00,Wunderground v.1.15,2013-02-15 10:55:00,
2013-02-15 06:00:00,23.6,14.2,29.98,North,352,3.0,4.0,67,0.00,,,0.00,Wunderground v.1.15,2013-02-15 11:00:00,
2013-02-15 06:05:00,23.6,14.2,29.98,North,0,4.0,4.0,67,0.00,,,0.00,Wunderground v.1.15,2013-02-15 11:05:00,
2013-02-15 06:15:00,23.5,14.1,29.99,NE,34,4.0,5.0,67,0.00,,,0.00,Wunderground v.1.15,2013-02-15 11:15:00,
2013-02-15 06:20:00,23.5,14.5,29.99,North,350,3.0,3.0,68,0.00,,,0.00,Wunderground v.1.15,2013-02-15 11:20:00,
2013-02-15 06:30:00,23.3,14.6,29.99,North,354,2.0,2.0,69,0.00,,,0.00,Wunderground v.1.15,2013-02-15 11:30:00,
2013-02-15 06:35:00,23.3,14.6,29.99,North,0,3.0,3.0,69,0.00,,,0.00,Wunderground v.1.15,2013-02-15 11:35:00,
2013-02-15 06:40:00,23.3,15.0,29.99,NNW,329,3.0,3.0,70,0.00,,,0.00,Wunderground v.1.15,2013-02-15 11:40:00,
2013-02-15 06:50:00,23.2,15.2,30.00,NW,318,2.0,2.0,71,0.00,,,0.00,Wunderground v.1.15,2013-02-15 11:50:00,
2013-02-15 06:55:00,23.2,15.5,30.00,NW,325,1.0,2.0,72,0.00,,,0.00,Wunderground v.1.15,2013-02-15 11:55:00,
2013-02-15 07:00:00,23.0,15.6,30.00,NW,319,1.0,2.0,73,0.00,,,0.00,Wunderground v.1.15,2013-02-15 12:00:00,
2013-02-15 07:05:00,23.0,15.6,30.00,NW,306,1.0,2.0,73,0.00,,,0.00,Wunderground v.1.15,2013-02-15 12:05:00,
2013-02-15 07:15:00,22.9,15.8,30.00,North,359,2.0,2.0,74,0.00,,,0.00,Wunderground v.1.15,2013-02-15 12:15:00,
2013-02-15 07:25:00,22.7,16.0,30.00,WNW,285,1.0,4.0,75,0.00,,,0.00,Wunderground v.1.15,2013-02-15 12:25:00,
2013-02-15 07:30:00,22.7,16.0,30.00,NW,326,1.0,1.0,75,0.00,,,0.00,Wunderground v.1.15,2013-02-15 12:30:00,
2013-02-15 07:35:00,22.7,16.0,30.00,NW,322,0.0,3.0,75,0.00,,,0.00,Wunderground v.1.15,2013-02-15 12:35:00,
2013-02-15 07:40:00,22.7,16.0,30.00,NW,311,1.0,1.0,75,0.00,,,0.00,Wunderground v.1.15,2013-02-15 12:40:00,
2013-02-15 07:50:00,22.7,16.0,30.01,NNW,339,1.0,1.0,75,0.00,,,0.00,Wunderground v.1.15,2013-02-15 12:50:00,
2013-02-15 07:55:00,22.7,15.7,30.01,North,359,2.0,2.0,74,0.00,,,0.00,Wunderground v.1.15,2013-02-15 12:55:00,
2013-02-15 08:00:00,22.7,15.7,30.02,NNW,335,2.0,2.0,74,0.00,,,0.00,Wunderground v.1.15,2013-02-15 13:00:00,
2013-02-15 08:05:00,22.9,15.5,30.02,North,350,2.0,2.0,73,0.00,,,0.00,Wunderground v.1.15,2013-02-15 13:05:00,
2013-02-15 08:15:00,22.9,15.2,30.02,NNW,337,3.0,3.0,72,0.00,,,0.00,Wunderground v.1.15,2013-02-15 13:15:00,
2013-02-15 08:25:00,23.0,15.0,30.02,North,354,3.0,6.0,71,0.00,,,0.00,Wunderground v.1.15,2013-02-15 13:25:00,
2013-02-15 08:30:00,23.0,14.7,30.03,North,3,3.0,3.0,70,0.00,,,0.00,Wunderground v.1.15,2013-02-15 13:30:00,
2013-02-15 08:35:00,23.2,14.9,30.03,NNW,333,3.0,3.0,70,0.00,,,0.00,Wunderground v.1.15,2013-02-15 13:35:00,
2013-02-15 08:45:00,23.2,13.9,30.04,North,349,3.0,5.0,67,0.00,,,0.00,Wunderground v.1.15,2013-02-15 13:45:00,
2013-02-15 08:50:00,23.2,13.5,30.04,NW,308,4.0,6.0,66,0.00,,,0.00,Wunderground v.1.15,2013-02-15 13:50:00,
2013-02-15 08:55:00,23.3,13.6,30.04,North,0,4.0,8.0,66,0.00,,,0.00,Wunderground v.1.15,2013-02-15 13:55:00,
2013-02-15 09:00:00,23.5,13.1,30.04,NNW,339,5.0,7.0,64,0.00,,,0.00,Wunderground v.1.15,2013-02-15 14:00:00,
2013-02-15 09:05:00,23.5,13.1,30.04,NNE,27,5.0,7.0,64,0.00,,,0.00,Wunderground v.1.15,2013-02-15 14:05:00,
2013-02-15 09:15:00,23.6,12.5,30.05,NNW,332,5.0,5.0,62,0.00,,,0.00,Wunderground v.1.15,2013-02-15 14:15:00,
2013-02-15 09:20:00,23.8,12.7,30.05,North,350,4.0,4.0,62,0.00,,,0.00,Wunderground v.1.15,2013-02-15 14:20:00,
2013-02-15 09:25:00,23.9,12.8,30.05,WNW,298,3.0,4.0,62,0.00,,,0.00,Wunderground v.1.15,2013-02-15 14:25:00,
2013-02-15 09:30:00,23.9,12.0,30.05,North,350,4.0,4.0,60,0.00,,,0.00,Wunderground v.1.15,2013-02-15 14:30:00,
2013-02-15 09:35:00,23.8,11.9,30.05,NW,305,5.0,5.0,60,0.00,,,0.00,Wunderground v.1.15,2013-02-15 14:35:00,
2013-02-15 09:45:00,23.9,12.0,30.06,NNW,346,4.0,5.0,60,0.00,,,0.00,Wunderground v.1.15,2013-02-15 14:45:00,
2013-02-15 09:50:00,23.9,11.6,30.06,NNW,346,4.0,4.0,59,0.00,,,0.00,Wunderground v.1.15,2013-02-15 14:50:00,
2013-02-15 09:55:00,23.9,11.6,30.06,NNW,328,5.0,6.0,59,0.00,,,0.00,Wunderground v.1.15,2013-02-15 14:55:00,
2013-02-15 10:05:00,23.9,12.0,30.06,North,352,5.0,6.0,60,0.00,,,0.00,Wunderground v.1.15,2013-02-15 15:05:00,
2013-02-15 10:15:00,24.1,11.8,30.07,NNW,344,4.0,7.0,59,0.00,,,0.00,Wunderground v.1.15,2013-02-15 15:15:00,
2013-02-15 10:20:00,24.1,11.8,30.07,North,353,5.0,5.0,59,0.00,,,0.00,Wunderground v.1.15,2013-02-15 15:20:00,
2013-02-15 10:25:00,24.1,12.2,30.07,North,359,4.0,5.0,60,0.00,,,0.00,Wunderground v.1.15,2013-02-15 15:25:00,
2013-02-15 10:30:00,24.2,11.5,30.07,WNW,302,4.0,4.0,58,0.00,,,0.00,Wunderground v.1.15,2013-02-15 15:30:00,
2013-02-15 10:40:00,24.2,11.5,30.07,NNW,343,5.0,5.0,58,0.00,,,0.00,Wunderground v.1.15,2013-02-15 15:40:00,
2013-02-15 10:45:00,24.4,11.7,30.07,North,349,5.0,11.0,58,0.00,,,0.00,Wunderground v.1.15,2013-02-15 15:45:00,
2013-02-15 10:50:00,24.4,11.7,30.07,North,0,5.0,8.0,58,0.00,,,0.00,Wunderground v.1.15,2013-02-15 15:50:00,
2013-02-15 10:55:00,24.5,11.8,30.07,North,4,5.0,8.0,58,0.00,,,0.00,Wunderground v.1.15,2013-02-15 15:55:00,
2013-02-15 11:05:00,24.5,11.8,30.07,NNW,347,5.0,6.0,58,0.00,,,0.00,Wunderground v.1.15,2013-02-15 16:05:00,
2013-02-15 11:15:00,24.7,11.6,30.08,North,356,4.0,4.0,57,0.00,,,0.00,Wunderground v.1.15,2013-02-15 16:15:00,
2013-02-15 11:20:00,24.8,12.1,30.08,NNW,328,3.0,5.0,58,0.00,,,0.00,Wunderground v.1.15,2013-02-15 16:20:00,
2013-02-15 11:25:00,24.8,11.7,30.08,NNW,346,4.0,5.0,57,0.00,,,0.00,Wunderground v.1.15,2013-02-15 16:25:00,
2013-02-15 11:30:00,24.5,12.2,30.08,North,1,4.0,4.0,59,0.00,,,0.00,Wunderground v.1.15,2013-02-15 16:30:00,
2013-02-15 11:40:00,24.4,12.5,30.08,North,349,4.0,4.0,60,0.00,,,0.00,Wunderground v.1.15,2013-02-15 16:40:00,
2013-02-15 11:45:00,24.5,13.0,30.08,North,356,4.0,5.0,61,0.00,,,0.00,Wunderground v.1.15,2013-02-15 16:45:00,
2013-02-15 11:50:00,24.5,13.3,30.08,NW,316,5.0,8.0,62,0.00,,,0.00,Wunderground v.1.15,2013-02-15 16:50:00,
2013-02-15 11:55:00,24.7,13.5,30.08,North,349,5.0,8.0,62,0.00,,,0.00,Wunderground v.1.15,2013-02-15 16:55:00,
2013-02-15 12:05:00,24.5,13.7,30.08,North,0,6.0,6.0,63,0.00,,,0.00,Wunderground v.1.15,2013-02-15 17:05:00,
2013-02-15 12:15:00,25.4,14.2,30.08,NNW,342,3.0,5.0,62,0.00,,,0.00,Wunderground v.1.15,2013-02-15 17:15:00,
2013-02-15 12:20:00,25.7,12.9,30.08,NNW,333,4.0,4.0,58,0.00,,,0.00,Wunderground v.1.15,2013-02-15 17:20:00,
2013-02-15 12:25:00,25.8,12.2,30.08,NNW,336,3.0,5.0,56,0.00,,,0.00,Wunderground v.1.15,2013-02-15 17:25:00,
2013-02-15 12:30:00,25.7,12.6,30.07,NNE,24,4.0,7.0,57,0.00,,,0.00,Wunderground v.1.15,2013-02-15 17:30:00,
2013-02-15 12:40:00,25.7,13.3,30.07,NW,319,5.0,6.0,59,0.00,,,0.00,Wunderground v.1.15,2013-02-15 17:40:00,
2013-02-15 12:45:00,25.4,13.8,30.08,North,4,5.0,6.0,61,0.00,,,0.00,Wunderground v.1.15,2013-02-15 17:45:00,
2013-02-15 12:50:00,25.3,13.3,30.08,NW,325,5.0,5.0,60,0.00,,,0.00,Wunderground v.1.15,2013-02-15 17:50:00,
2013-02-15 13:00:00,25.3,13.3,30.07,NW,315,4.0,4.0,60,0.00,,,0.00,Wunderground v.1.15,2013-02-15 18:00:00,
2013-02-15 13:05:00,25.3,12.2,30.07,NNW,344,4.0,4.0,57,0.00,,,0.00,Wunderground v.1.15,2013-02-15 18:05:00,
2013-02-15 13:15:00,25.7,12.6,30.07,NW,325,3.0,3.0,57,0.00,,,0.00,Wunderground v.1.15,2013-02-15 18:15:00,
2013-02-15 13:20:00,25.7,12.6,30.07,North,359,4.0,4.0,57,0.00,,,0.00,Wunderground v.1.15,2013-02-15 18:20:00,
2013-02-15 13:25:00,25.7,12.6,30.07,North,0,5.0,6.0,57,0.00,,,0.00,Wunderground v.1.15,2013-02-15 18:25:00,
2013-02-15 13:30:00,25.7,12.6,30.07,North,3,5.0,6.0,57,0.00,,,0.00,Wunderground v.1.15,2013-02-15 18:30:00,
2013-02-15 13:40:00,26.0,12.8,30.07,NW,320,3.0,3.0,57,0.00,,,0.00,Wunderground v.1.15,2013-02-15 18:40:00,
2013-02-15 13:45:00,26.6,13.4,30.07,NNW,328,3.0,3.0,57,0.00,,,0.00,Wunderground v.1.15,2013-02-15 18:45:00,
2013-02-15 13:50:00,26.7,12.3,30.07,NW,308,3.0,6.0,54,0.00,,,0.00,Wunderground v.1.15,2013-02-15 18:50:00,
2013-02-15 14:00:00,26.3,12.3,30.06,NW,309,4.0,4.0,55,0.00,,,0.00,Wunderground v.1.15,2013-02-15 19:00:00,
2013-02-15 14:05:00,26.0,12.0,30.06,West,264,4.0,4.0,55,0.00,,,0.00,Wunderground v.1.15,2013-02-15 19:05:00,
2013-02-15 14:15:00,26.3,12.7,30.06,West,267,4.0,5.0,56,0.00,,,0.00,Wunderground v.1.15,2013-02-15 19:15:00,
2013-02-15 14:20:00,26.4,11.6,30.06,North,357,4.0,5.0,53,0.00,,,0.00,Wunderground v.1.15,2013-02-15 19:20:00,
2013-02-15 14:25:00,26.6,11.7,30.06,NNW,332,4.0,5.0,53,0.00,,,0.00,Wunderground v.1.15,2013-02-15 19:25:00,
2013-02-15 14:30:00,26.6,11.7,30.07,NNW,342,3.0,5.0,53,0.00,,,0.00,Wunderground v.1.15,2013-02-15 19:30:00,
2013-02-15 14:40:00,25.8,11.8,30.07,WNW,294,4.0,4.0,55,0.00,,,0.00,Wunderground v.1.15,2013-02-15 19:40:00,
2013-02-15 14:45:00,25.7,12.6,30.07,SW,219,4.0,4.0,57,0.00,,,0.00,Wunderground v.1.15,2013-02-15 19:45:00,
2013-02-15 14:55:00,25.7,12.6,30.07,NNW,344,5.0,5.0,57,0.00,,,0.00,Wunderground v.1.15,2013-02-15 19:55:00,
2013-02-15 15:00:00,25.8,12.6,30.07,WSW,243,5.0,5.0,57,0.00,,,0.00,Wunderground v.1.15,2013-02-15 20:00:00,
2013-02-15 15:06:00,26.0,12.0,30.07,NW,322,4.0,6.0,55,0.00,,,0.00,Wunderground v.1.15,2013-02-15 20:06:00,
2013-02-15 15:15:00,25.8,11.8,30.07,WNW,295,3.0,6.0,55,0.00,,,0.00,Wunderground v.1.15,2013-02-15 20:15:00,
2013-02-15 15:25:00,25.1,11.6,30.07,WNW,288,5.0,5.0,56,0.00,,,0.00,Wunderground v.1.15,2013-02-15 20:25:00,
2013-02-15 15:30:00,25.0,11.5,30.07,NNW,339,3.0,3.0,56,0.00,,,0.00,Wunderground v.1.15,2013-02-15 20:30:00,
2013-02-15 15:35:00,25.0,11.9,30.07,WNW,282,3.0,3.0,57,0.00,,,0.00,Wunderground v.1.15,2013-02-15 20:35:00,
2013-02-15 15:40:00,25.1,12.4,30.07,NW,315,2.0,2.0,58,0.00,,,0.00,Wunderground v.1.15,2013-02-15 20:40:00,
2013-02-15 15:50:00,25.1,12.0,30.07,WNW,289,4.0,4.0,57,0.00,,,0.00,Wunderground v.1.15,2013-02-15 20:50:00,
2013-02-15 15:55:00,25.3,11.8,30.07,NW,309,4.0,4.0,56,0.00,,,0.00,Wunderground v.1.15,2013-02-15 20:55:00,
2013-02-15 16:00:00,25.3,12.2,30.08,NW,326,4.0,7.0,57,0.00,,,0.00,Wunderground v.1.15,2013-02-15 21:00:00,
2013-02-15 16:05:00,25.1,12.0,30.08,NNW,336,4.0,7.0,57,0.00,,,0.00,Wunderground v.1.15,2013-02-15 21:05:00,
2013-02-15 16:15:00,25.0,13.1,30.08,North,0,3.0,3.0,60,0.00,,,0.00,Wunderground v.1.15,2013-02-15 21:15:00,
2013-02-15 16:20:00,25.1,13.5,30.08,West,275,3.0,5.0,61,0.00,,,0.00,Wunderground v.1.15,2013-02-15 21:20:00,
2013-02-15 16:30:00,24.8,13.2,30.08,WNW,284,4.0,4.0,61,0.00,,,0.00,Wunderground v.1.15,2013-02-15 21:30:00,
2013-02-15 16:35:00,24.7,12.8,30.08,NW,316,4.0,4.0,60,0.00,,,0.00,Wunderground v.1.15,2013-02-15 21:35:00,
2013-02-15 16:40:00,24.5,11.8,30.08,WNW,298,4.0,4.0,58,0.00,,,0.00,Wunderground v.1.15,2013-02-15 21:40:00,
2013-02-15 16:50:00,24.7,11.6,30.09,WNW,296,3.0,3.0,57,0.00,,,0.00,Wunderground v.1.15,2013-02-15 21:50:00,
2013-02-15 16:55:00,24.5,11.8,30.09,NNW,328,4.0,5.0,58,0.00,,,0.00,Wunderground v.1.15,2013-02-15 21:55:00,
2013-02-15 17:00:00,24.4,12.1,30.09,WNW,284,4.0,4.0,59,0.00,,,0.00,Wunderground v.1.15,2013-02-15 22:00:00,
2013-02-15 17:05:00,24.2,12.3,30.09,WNW,291,4.0,4.0,60,0.00,,,0.00,Wunderground v.1.15,2013-02-15 22:05:00,
2013-02-15 17:15:00,24.2,12.7,30.09,NNW,328,2.0,6.0,61,0.00,,,0.00,Wunderground v.1.15,2013-02-15 22:15:00,
2013-02-15 17:25:00,23.9,12.0,30.09,NW,325,4.0,4.0,60,0.00,,,0.00,Wunderground v.1.15,2013-02-15 22:25:00,
2013-02-15 17:30:00,23.9,12.0,30.10,NW,325,3.0,3.0,60,0.00,,,0.00,Wunderground v.1.15,2013-02-15 22:30:00,
2013-02-15 17:35:00,23.9,12.0,30.10,WNW,282,3.0,3.0,60,0.00,,,0.00,Wunderground v.1.15,2013-02-15 22:35:00,
2013-02-15 17:45:00,23.8,11.9,30.10,NW,306,1.0,2.0,60,0.00,,,0.00,Wunderground v.1.15,2013-02-15 22:45:00,
2013-02-15 17:50:00,23.6,12.1,30.10,NNW,329,2.0,2.0,61,0.00,,,0.00,Wunderground v.1.15,2013-02-15 22:50:00,
2013-02-15 17:55:00,23.5,12.4,30.10,NW,304,2.0,2.0,62,0.00,,,0.00,Wunderground v.1.15,2013-02-15 22:55:00,
2013-02-15 18:05:00,23.2,12.5,30.10,WNW,287,2.0,2.0,63,0.00,,,0.00,Wunderground v.1.15,2013-02-15 23:05:00,
2013-02-15 18:15:00,23.0,12.6,30.11,NW,319,1.0,2.0,64,0.00,,,0.00,Wunderground v.1.15,2013-02-15 23:15:00,
2013-02-15 18:25:00,22.7,12.7,30.11,NW,323,1.0,3.0,65,0.00,,,0.00,Wunderground v.1.15,2013-02-15 23:25:00,
2013-02-15 18:30:00,22.5,12.8,30.11,WNW,291,2.0,2.0,66,0.00,,,0.00,Wunderground v.1.15,2013-02-15 23:30:00,
2013-02-15 18:35:00,22.5,13.2,30.11,NNW,337,2.0,2.0,67,0.00,,,0.00,Wunderground v.1.15,2013-02-15 23:35:00,
2013-02-15 18:45:00,22.4,13.8,30.11,West,278,2.0,4.0,69,0.00,,,0.00,Wunderground v.1.15,2013-02-15 23:45:00,
2013-02-15 18:50:00,22.2,13.9,30.11,NW,306,2.0,3.0,70,0.00,,,0.00,Wunderground v.1.15,2013-02-15 23:50:00,
2013-02-15 18:55:00,22.2,14.2,30.11,West,271,2.0,3.0,71,0.00,,,0.00,Wunderground v.1.15,2013-02-15 23:55:00,
2013-02-15 19:00:00,22.1,14.4,30.12,WNW,302,1.0,2.0,72,0.00,,,0.00,Wunderground v.1.15,2013-02-16 00:00:00,
2013-02-15 19:05:00,22.1,14.4,30.12,NNW,337,1.0,2.0,72,0.00,,,0.00,Wunderground v.1.15,2013-02-16 00:05:00,
2013-02-15 19:15:00,21.9,14.3,30.12,NNW,336,1.0,1.0,72,0.00,,,0.00,Wunderground v.1.15,2013-02-16 00:15:00,
2013-02-15 19:20:00,21.9,14.6,30.12,NW,326,1.0,1.0,73,0.00,,,0.00,Wunderground v.1.15,2013-02-16 00:20:00,
2013-02-15 19:30:00,22.1,14.8,30.12,WNW,295,1.0,2.0,73,0.00,,,0.00,Wunderground v.1.15,2013-02-16 00:30:00,
2013-02-15 19:35:00,22.1,15.1,30.12,West,272,1.0,2.0,74,0.00,,,0.00,Wunderground v.1.15,2013-02-16 00:35:00,
2013-02-15 19:40:00,22.1,15.1,30.12,West,272,1.0,1.0,74,0.00,,,0.00,Wunderground v.1.15,2013-02-16 00:40:00,
2013-02-15 19:50:00,21.9,15.2,30.11,North,349,0.0,2.0,75,0.00,,,0.00,Wunderground v.1.15,2013-02-16 00:50:00,
2013-02-15 19:55:00,21.9,15.2,30.11,North,349,1.0,2.0,75,0.00,,,0.00,Wunderground v.1.15,2013-02-16 00:55:00,
2013-02-15 20:00:00,21.8,15.1,30.12,NW,325,1.0,1.0,75,0.00,,,0.00,Wunderground v.1.15,2013-02-16 01:00:00,
2013-02-15 20:06:00,21.8,15.1,30.12,NW,325,1.0,1.0,75,0.00,,,0.00,Wunderground v.1.15,2013-02-16 01:06:00,
2013-02-15 20:15:00,21.8,14.8,30.12,NNW,346,2.0,2.0,74,0.00,,,0.00,Wunderground v.1.15,2013-02-16 01:15:00,
2013-02-15 20:25:00,21.6,14.9,30.12,NNW,340,1.0,1.0,75,0.00,,,0.00,Wunderground v.1.15,2013-02-16 01:25:00,
2013-02-15 20:30:00,21.6,14.9,30.11,NNW,340,1.0,1.0,75,0.00,,,0.00,Wunderground v.1.15,2013-02-16 01:30:00,
2013-02-15 20:35:00,21.6,14.9,30.11,NNW,340,0.0,1.0,75,0.00,,,0.00,Wunderground v.1.15,2013-02-16 01:35:00,
2013-02-15 20:40:00,21.6,15.2,30.11,NNW,340,0.0,0.0,76,0.00,,,0.00,Wunderground v.1.15,2013-02-16 01:40:00,
2013-02-15 20:50:00,21.4,15.3,30.11,NNW,333,0.0,0.0,77,0.00,,,0.00,Wunderground v.1.15,2013-02-16 01:50:00,
2013-02-15 20:55:00,21.4,15.6,30.11,NNW,333,0.0,0.0,78,0.00,,,0.00,Wunderground v.1.15,2013-02-16 01:55:00,
2013-02-15 21:00:00,21.3,15.5,30.12,NNW,333,0.0,0.0,78,0.00,,,0.00,Wunderground v.1.15,2013-02-16 02:00:00,
2013-02-15 21:05:00,21.3,15.8,30.12,NNW,333,0.0,0.0,79,0.00,,,0.00,Wunderground v.1.15,2013-02-16 02:05:00,
2013-02-15 21:15:00,21.1,15.6,30.12,NNW,333,0.0,0.0,79,0.00,,,0.00,Wunderground v.1.15,2013-02-16 02:15:00,
2013-02-15 21:25:00,21.1,15.9,30.12,NNW,333,0.0,0.0,80,0.00,,,0.00,Wunderground v.1.15,2013-02-16 02:25:00,
2013-02-15 21:30:00,21.1,15.9,30.12,NNW,333,0.0,0.0,80,0.00,,,0.00,Wunderground v.1.15,2013-02-16 02:30:00,
2013-02-15 21:35:00,21.1,15.9,30.12,NNW,333,0.0,0.0,80,0.00,,,0.00,Wunderground v.1.15,2013-02-16 02:35:00,
2013-02-15 21:45:00,21.1,16.2,30.11,NNW,333,0.0,0.0,81,0.00,,,0.00,Wunderground v.1.15,2013-02-16 02:45:00,
2013-02-15 21:50:00,21.1,16.2,30.11,NNW,333,0.0,0.0,81,0.00,,,0.00,Wunderground v.1.15,2013-02-16 02:50:00,
2013-02-15 21:55:00,21.0,16.4,30.11,NNW,333,0.0,0.0,82,0.00,,,0.00,Wunderground v.1.15,2013-02-16 02:55:00,
2013-02-15 22:00:00,21.0,16.4,30.11,NNW,333,0.0,0.0,82,0.00,,,0.00,Wunderground v.1.15,2013-02-16 03:00:00,
2013-02-15 22:05:00,21.0,16.4,30.11,NNW,333,0.0,0.0,82,0.00,,,0.00,Wunderground v.1.15,2013-02-16 03:05:00,
2013-02-15 22:15:00,21.0,16.6,30.11,NNW,333,0.0,0.0,83,0.00,,,0.00,Wunderground v.1.15,2013-02-16 03:15:00,
2013-02-15 22:25:00,21.1,16.7,30.11,NNW,332,0.0,0.0,83,0.00,,,0.00,Wunderground v.1.15,2013-02-16 03:25:00,
2013-02-15 22:30:00,21.1,16.7,30.10,NNW,332,0.0,0.0,83,0.00,,,0.00,Wunderground v.1.15,2013-02-16 03:30:00,
2013-02-15 22:35:00,21.3,17.2,30.10,NNW,332,0.0,0.0,84,0.00,,,0.00,Wunderground v.1.15,2013-02-16 03:35:00,
2013-02-15 22:45:00,21.4,17.3,30.10,NNW,332,0.0,0.0,84,0.00,,,0.00,Wunderground v.1.15,2013-02-16 03:45:00,
2013-02-15 22:50:00,21.1,17.0,30.10,NNW,332,0.0,0.0,84,0.00,,,0.00,Wunderground v.1.15,2013-02-16 03:50:00,
2013-02-15 22:55:00,21.0,16.9,30.10,NNW,332,0.0,0.0,84,0.00,,,0.00,Wunderground v.1.15,2013-02-16 03:55:00,
2013-02-15 23:05:00,20.8,17.0,30.09,NNW,332,0.0,0.0,85,0.00,,,0.00,Wunderground v.1.15,2013-02-16 04:05:00,
2013-02-15 23:15:00,21.1,17.3,30.09,NNW,332,0.0,0.0,85,0.00,,,0.00,Wunderground v.1.15,2013-02-16 04:15:00,
2013-02-15 23:20:00,21.1,17.3,30.09,NNW,332,0.0,0.0,85,0.00,,,0.00,Wunderground v.1.15,2013-02-16 04:20:00,
2013-02-15 23:25:00,21.0,17.2,30.09,NNW,332,0.0,0.0,85,0.00,,,0.00,Wunderground v.1.15,2013-02-16 04:25:00,
2013-02-15 23:30:00,20.8,17.0,30.09,NNW,332,0.0,0.0,85,0.00,,,0.00,Wunderground v.1.15,2013-02-16 04:30:00,
2013-02-15 23:40:00,20.5,16.7,30.09,NNW,332,0.0,0.0,85,0.00,,,0.00,Wunderground v.1.15,2013-02-16 04:40:00,
2013-02-15 23:45:00,20.3,16.5,30.09,NNW,332,0.0,0.0,85,0.00,,,0.00,Wunderground v.1.15,2013-02-16 04:45:00,
2013-02-15 23:50:00,20.2,16.4,30.09,NNW,332,0.0,0.0,85,0.00,,,0.00,Wunderground v.1.15,2013-02-16 04:50:00,
2013-02-15 23:55:00,19.9,16.1,30.09,NNW,332,0.0,0.0,85,0.00,,,0.00,Wunderground v.1.15,2013-02-16 04:55:00,